Wind_Speed
6 6 6 6 7 8 8 7 7 8 9 9 9 10 10 11 11 12 12 13 12 12 12 12 12 13 14 14 15 15 15 15 16 17 18 20 21 22 24 26 27 26 25 25 24 24 24 23 22 22 23 24 26 27 29 31 33 35 37 39 41 42 43 43 42 42 42 40 40 39 40 40 39 38
9 8 8 7 8 8 8 8 8 8 8 8 8 9 9 10 11 11 12 13 13 13 13 13 13 13 14 14 14 15 16 17 18 19 20 21 22 23 24 25 25 24 23 23 23 23 23 23 23 23 24 25 26 28 29 31 33 35 36 38 40 42 42 42 42 43 42 42 41 41 41 41 40 38
11 11 11 10 9 9 8 9 9 8 7 7 7 8 9 9 10 11 11 12 13 13 12 12 12 13 14 15 15 16 17 19 20 21 22 23 23 23 24 24 23 22 21 21 22 22 23 24 24 24 25 26 27 28 30 31 33 34 36 37 39 41 42 42 42 43 43 43 42 42 42 42 41 40
13 13 13 13 12 11 10 9 9 9 9 8 8 8 9 9 10 11 11 10 10 11 12 12 12 13 14 16 17 18 19 20 21 22 23 24 24 24 25 25 23 22 21 21 22 23 24 24 25 25 26 27 28 29 30 31 33 34 35 37 39 41 42 42 43 43 44 43 43 44 43 43 43 42
14 14 15 15 15 14 13 12 11 11 10 10 10 10 10 11 11 12 12 12 11 11 12 13 14 15 15 17 18 20 20 21 22 23 24 25 25 25 25 25 25 24 23 23 24 25 25 26 26 26 27 28 29 30 31 31 32 34 35 37 38 40 42 42 43 43 44 44 44 45 45 44 44 43
15 15 16 17 17 16 16 15 14 14 13 12 12 13 12 12 12 13 13 14 15 15 14 14 15 17 17 18 19 20 21 22 22 23 25 25 25 26 26 27 27 27 26 26 26 27 28 28 28 28 28 29 29 30 31 31 32 33 35 37 38 40 42 43 43 43 44 44 45 45 45 45 45 44
16 16 17 18 18 17 17 16 16 16 16 15 15 15 15 15 14 14 15 15 16 18 18 18 17 17 18 19 19 20 21 22 23 23 24 25 26 26 27 28 29 29 29 29 29 29 30 30 30 29 29 29 30 31 31 32 32 34 35 37 38 40 41 43 43 43 44 44 45 46 46 45 46 45
17 17 18 19 19 18 18 17 17 17 18 17 17 17 17 17 17 17 18 18 18 18 20 21 21 20 20 21 22 22 21 22 23 25 25 26 27 27 28 29 31 32 32 31 31 32 32 33 32 31 31 30 31 31 32 32 33 34 35 37 38 39 41 42 43 43 44 44 45 46 46 46 46 45
18 18 18 19 19 18 17 18 19 18 18 19 19 20 20 19 19 19 20 21 21 21 21 22 24 24 24 23 24 24 24 23 24 26 28 29 29 29 30 30 32 34 34 33 33 33 34 35 35 34 33 32 32 32 33 33 33 34 35 36 37 39 41 42 43 43 44 44 45 45 45 45 46 45
17 17 18 18 18 17 17 18 19 20 20 20 20 21 22 22 22 22 22 22 23 24 25 25 25 26 26 27 27 27 27 27 26 27 30 32 32 33 33 33 34 36 37 36 35 35 36 37 37 37 36 34 33 33 33 34 34 34 34 35 37 39 40 42 42 43 44 44 44 45 45 45 45 45
13 14 15 16 16 17 16 17 18 20 21 21 22 22 22 24 25 25 24 24 24 25 27 27 27 28 28 29 29 30 30 31 30 30 31 33 34 35 36 37 37 38 40 41 40 38 37 37 38 38 38 37 35 34 34 34 34 34 34 35 37 38 39 40 42 42 43 43 43 44 44 44 45 44
12 12 13 13 13 15 16 17 18 19 21 22 23 23 24 24 25 26 27 27 26 26 27 28 29 30 30 30 32 33 33 34 34 34 34 35 36 37 39 40 41 42 43 44 44 42 39 38 38 38 39 39 37 35 34 33 34 33 33 34 36 37 37 39 40 40 41 41 42 43 43 43 44 43
13 13 13 13 13 13 15 17 18 19 21 22 24 25 26 26 27 28 29 29 29 28 28 29 31 32 32 32 34 35 36 36 38 38 38 38 39 40 41 43 44 44 45 47 48 47 44 42 41 39 38 38 37 36 35 33 33 33 32 34 35 36 36 37 38 39 39 40 41 42 42 42 43 43
13 14 14 14 14 14 14 16 18 19 20 22 24 25 26 27 28 29 30 30 30 30 30 30 32 33 33 34 36 37 37 38 39 40 42 42 42 42 43 45 47 47 47 47 49 49 47 45 43 40 38 37 37 36 35 33 32 32 33 34 34 34 35 36 37 38 39 40 41 42 42 41 42 42
13 14 14 14 14 14 14 15 16 18 19 20 22 24 25 26 27 29 30 31 31 32 32 32 32 33 33 36 38 38 39 40 40 41 42 44 45 44 44 46 48 49 48 48 50 50 48 45 43 39 36 36 37 37 36 34 33 32 32 33 33 33 34 35 37 39 39 39 40 41 41 40 40 42
14 14 14 14 14 15 16 16 17 18 19 20 20 22 23 24 25 27 28 30 31 32 32 32 32 32 34 37 39 40 41 42 41 41 43 45 46 46 46 47 49 50 49 49 50 51 49 46 43 39 36 36 37 37 38 37 34 31 29 31 32 32 33 36 37 38 38 38 39 41 40 39 39 41
14 15 15 16 16 17 18 19 20 21 22 22 22 23 24 25 26 27 28 29 29 30 31 31 31 32 34 36 38 40 42 42 42 43 44 45 47 47 48 49 51 51 51 50 50 51 49 46 43 41 39 37 37 39 39 38 35 30 27 29 31 31 33 35 37 38 38 38 39 39 39 38 37 39
13 14 16 16 17 19 20 21 22 23 24 25 26 26 26 27 27 29 31 31 31 31 32 32 32 33 35 36 38 40 42 43 43 44 46 47 48 49 50 51 52 53 53 50 49 51 51 47 44 44 43 40 40 42 41 39 36 30 26 27 30 30 32 34 36 37 37 37 37 38 38 36 36 37
14 16 17 18 19 20 22 23 25 26 27 28 29 29 29 29 29 31 32 34 34 35 35 35 35 35 36 38 38 40 42 44 45 46 47 48 48 50 52 52 53 54 54 50 49 51 52 49 46 46 45 43 42 43 41 39 36 29 25 27 29 29 31 33 35 36 35 35 36 37 37 35 34 35
17 18 20 21 22 23 24 25 27 28 29 30 31 31 31 32 32 32 33 35 37 38 39 40 40 39 40 40 40 41 43 44 46 47 48 47 48 49 51 52 53 53 52 50 49 49 50 48 47 48 46 44 44 43 39 38 35 27 24 26 28 28 30 33 34 34 33 34 35 36 36 34 33 34
22 22 23 25 26 27 28 29 30 31 32 32 32 32 33 34 34 34 34 35 37 39 41 42 43 43 43 43 43 44 45 46 47 49 49 48 48 50 51 52 52 53 52 50 49 47 46 47 48 49 46 44 45 43 40 39 34 26 24 26 27 28 29 31 32 32 32 33 34 36 36 34 32 33
25 26 26 28 29 30 31 32 33 35 36 36 35 35 35 35 33 33 35 37 39 40 42 43 44 44 44 45 45 46 47 48 48 49 49 49 50 51 51 50 51 52 50 46 46 47 47 47 48 48 47 46 45 42 42 41 34 25 23 26 27 27 28 29 31 31 31 32 34 36 37 34 32 33
28 29 29 30 31 32 33 34 35 38 39 39 39 39 40 39 36 34 36 39 40 41 42 42 44 45 45 46 47 47 47 48 48 47 47 49 50 50 50 50 50 49 46 43 46 48 48 47 48 49 48 48 47 43 42 40 32 24 24 25 25 26 27 28 30 30 30 32 34 36 36 34 32 33
29 31 32 32 32 34 36 37 39 40 41 42 43 44 44 43 40 41 43 42 42 43 42 41 43 46 46 46 47 47 47 48 49 47 47 49 49 49 51 51 48 45 44 44 47 49 48 47 49 50 48 48 48 45 42 38 29 24 24 24 24 25 26 27 29 28 29 32 34 36 36 34 32 32
31 32 32 33 35 37 39 41 42 42 42 44 47 48 47 46 45 48 49 46 46 47 43 40 42 45 46 46 47 47 48 48 50 50 50 51 50 51 53 53 49 47 46 47 48 50 51 50 50 50 48 47 47 45 41 36 28 24 24 24 23 24 25 26 27 27 28 31 33 36 36 34 32 32
34 34 34 36 37 39 41 42 44 45 45 46 48 50 50 51 52 53 53 51 50 50 47 44 45 46 47 47 48 49 49 49 51 52 53 53 54 54 55 54 53 51 50 50 50 52 54 52 50 49 47 46 45 44 41 36 29 24 24 24 23 23 24 25 26 26 27 30 33 36 36 33 31 32
37 38 39 40 40 41 42 43 44 46 47 48 50 51 52 55 57 57 57 55 53 53 53 52 52 51 51 51 51 51 51 51 52 54 55 56 57 57 56 56 55 54 54 54 55 56 57 54 50 48 47 46 45 43 41 37 29 25 24 24 23 23 23 25 26 26 26 29 32 35 36 33 31 31
39 41 42 43 43 44 44 44 45 46 48 49 51 52 55 58 60 59 57 56 55 55 54 53 53 53 53 55 55 55 55 55 56 57 57 58 58 58 58 58 58 57 55 55 56 59 59 54 49 48 47 45 44 42 40 37 29 24 23 24 23 23 23 24 25 25 25 28 32 34 35 33 31 31
42 44 45 45 46 47 47 48 48 49 49 50 52 54 56 60 61 59 57 57 57 57 56 55 56 55 55 57 59 60 60 60 60 60 60 59 59 59 60 60 60 58 55 54 56 59 59 53 49 49 48 44 42 41 39 35 28 23 23 23 23 22 22 23 24 23 24 28 31 34 35 34 31 31
45 47 48 49 50 50 51 52 52 52 51 52 53 54 55 59 62 61 61 62 63 62 60 60 61 60 61 63 65 65 65 65 64 63 61 60 60 60 61 61 61 59 57 55 56 58 59 54 50 49 47 43 40 39 37 32 26 23 23 23 23 22 21 22 23 23 23 27 30 33 35 34 32 31
49 50 52 53 54 54 54 54 54 54 53 53 53 53 54 58 62 63 64 66 67 66 64 65 66 68 71 73 73 70 67 65 65 65 64 63 61 60 59 60 61 59 57 55 55 57 58 55 50 49 49 45 39 37 35 29 25 23 23 23 24 22 21 22 22 22 23 26 30 33 34 33 31 31
53 53 54 55 56 57 56 56 56 56 55 54 54 55 57 60 62 64 66 67 67 67 66 67 71 75 79 80 77 71 65 62 62 63 64 64 64 64 62 61 59 56 54 54 54 55 56 55 52 52 54 48 40 36 32 27 24 23 23 24 24 22 21 22 23 22 22 25 29 32 34 33 31 31
55 55 56 57 58 58 58 58 58 58 58 58 58 59 60 62 63 64 65 67 67 66 66 69 74 79 80 78 74 70 65 63 61 59 58 58 61 63 65 64 61 56 53 53 53 53 53 53 52 53 54 49 41 36 30 25 23 23 24 24 24 22 21 22 23 22 22 24 28 32 33 32 31 31
57 57 57 58 59 59 59 59 60 60 60 61 62 62 62 63 62 62 63 65 66 65 65 67 73 77 75 73 71 68 65 62 58 56 56 55 55 56 60 62 62 59 54 51 53 54 54 53 53 53 53 50 43 34 28 25 22 23 24 25 24 22 22 23 23 23 22 24 27 31 32 32 31 31
57 57 58 59 59 59 60 61 62 62 62 64 64 63 62 60 59 59 61 62 63 64 64 66 70 72 71 69 69 68 66 63 60 57 57 56 55 55 56 57 59 59 55 52 55 58 57 56 55 54 54 52 43 32 26 24 22 22 24 25 24 23 22 23 23 23 23 24 27 30 31 31 31 30
57 58 59 59 59 60 61 62 63 63 65 65 64 61 59 57 56 57 59 61 62 63 63 64 67 69 69 69 70 70 68 66 63 60 60 61 59 58 56 55 55 56 54 53 55 57 55 55 56 56 55 51 40 29 24 23 21 22 24 25 24 23 23 23 23 23 23 25 27 29 30 31 30 30
59 60 61 61 61 62 63 64 64 65 65 63 61 59 57 56 57 58 60 62 63 62 62 63 65 66 68 69 70 70 71 70 68 65 64 64 63 60 57 55 54 52 52 55 57 53 51 54 55 54 52 47 38 29 25 21 19 21 24 25 24 23 23 23 23 24 24 26 27 29 30 30 29 29
62 63 64 64 64 64 65 66 66 65 63 60 59 58 58 58 59 61 61 62 62 62 62 63 64 65 67 67 68 69 70 70 70 69 66 64 63 61 57 53 51 49 51 59 60 54 53 55 52 47 46 43 35 28 24 19 17 22 24 24 24 23 22 23 23 24 25 26 27 29 29 29 29 29
64 65 66 66 66 66 67 66 64 61 59 58 58 58 59 60 61 62 62 62 61 60 61 62 63 65 65 66 68 68 66 65 65 66 64 61 59 56 54 50 48 48 52 58 59 58 58 57 49 44 44 39 31 25 21 17 18 22 24 23 24 23 23 23 23 24 25 26 27 28 29 28 29 29
67 68 68 68 68 69 68 65 61 59 58 58 58 59 61 62 62 62 62 61 59 59 61 62 64 65 65 67 68 64 60 59 56 52 52 52 52 51 49 45 44 47 49 49 51 58 62 57 47 43 41 34 25 21 19 17 19 23 24 24 24 23 23 23 23 24 26 27 28 28 28 28 28 29
69 70 70 70 71 70 67 62 59 58 59 59 59 60 61 62 61 61 61 59 58 59 60 61 63 63 63 65 66 62 59 58 51 43 43 46 48 47 45 42 44 47 47 48 56 64 62 52 42 38 34 28 22 19 18 19 22 24 24 24 24 24 23 23 23 24 27 27 28 28 27 28 28 29
71 72 72 72 71 68 64 60 59 59 59 59 60 60 60 60 59 59 58 56 56 58 59 60 62 61 57 55 55 55 57 57 46 34 34 36 36 35 35 37 45 54 60 63 65 61 49 38 34 32 28 23 20 18 19 21 23 24 24 24 24 24 23 23 23 25 27 27 28 27 27 27 28 29
73 73 72 71 68 64 61 59 60 61 61 60 61 60 59 59 58 57 55 53 54 57 59 59 61 60 56 53 52 48 48 46 37 32 41 50 46 38 35 37 46 60 65 59 49 40 33 30 29 26 23 20 18 18 20 21 23 24 25 24 24 24 23 23 24 25 27 28 27 27 27 27 28 29
73 72 70 67 63 60 60 60 61 62 62 62 62 61 61 61 60 58 57 55 56 58 59 59 60 60 58 57 55 48 43 41 35 35 51 68 66 53 47 48 51 53 48 37 29 29 30 27 24 22 20 19 19 19 21 22 24 25 25 24 25 25 24 24 25 26 27 28 27 26 27 28 29 29
70 68 65 62 60 59 60 61 61 62 62 62 62 61 60 60 59 58 58 57 56 57 58 58 59 59 58 57 52 47 43 43 42 37 43 57 63 57 49 44 37 30 27 25 28 30 27 22 21 20 19 18 19 21 22 23 24 25 25 25 25 25 24 25 25 26 28 28 27 27 27 28 29 30
Wind_Direction
283 280 282 290 300 311 322 333 341 347 352 357 3 8 10 11 13 13 10 11 13 11 3 352 346 344 342 338 335 332 330 331 333 334 335 335 334 332 331 333 336 338 337 336 336 336 335 334 331 328 328 330 333 336 338 341 344 346 349 350 349 347 346 347 348 347 345 343 342 341 339 335 332 327
291 287 285 286 292 300 309 317 325 335 343 350 358 3 7 9 7 7 6 4 6 10 11 6 0 357 352 348 345 342 339 338 339 338 336 335 335 334 333 336 341 343 343 341 339 338 337 335 332 328 327 329 331 334 337 340 342 345 347 348 348 346 345 346 347 346 344 343 342 341 339 336 333 329
296 293 291 289 290 296 303 309 314 320 329 340 350 356 359 1 2 3 6 6 5 5 8 9 6 1 356 354 355 354 351 348 346 344 342 340 340 339 339 342 347 349 348 345 343 341 339 337 333 329 327 328 331 333 336 339 341 343 345 346 346 345 344 345 345 345 344 342 341 340 339 336 334 331
296 292 291 290 291 293 297 302 307 312 318 327 337 345 350 351 353 355 360 4 4 359 354 354 356 356 353 352 353 357 359 357 354 351 350 349 348 346 347 349 352 352 350 347 344 342 340 337 334 331 329 329 330 332 334 337 340 341 343 344 344 344 344 344 344 344 343 342 341 340 339 337 336 333
295 291 289 288 289 292 294 298 303 307 312 320 326 332 338 342 345 347 348 348 350 350 348 344 344 347 350 351 351 353 357 359 358 355 354 354 354 352 351 352 354 353 350 347 343 340 339 338 335 332 330 329 329 330 333 336 338 339 340 342 343 343 343 342 343 344 343 342 340 339 339 338 337 335
294 292 288 286 286 289 292 296 301 305 309 314 318 322 327 331 335 338 339 338 338 339 341 342 341 340 341 343 345 346 348 350 351 352 352 353 354 352 351 351 352 353 352 349 345 341 338 337 335 333 331 330 329 329 331 334 335 336 338 340 342 342 341 341 342 343 343 341 340 339 339 339 338 336
290 291 289 287 286 286 290 294 298 302 305 309 313 316 319 321 324 328 330 331 331 331 332 334 336 336 334 333 335 338 340 340 339 341 345 347 348 348 347 346 347 348 349 349 348 344 341 337 334 332 331 330 329 328 330 331 332 335 338 339 341 341 340 340 342 343 342 341 340 340 339 339 339 337
287 288 289 288 287 287 289 292 294 298 302 305 308 310 311 314 316 319 321 322 323 325 326 327 329 329 329 327 327 330 334 334 333 334 336 339 340 340 341 341 341 342 344 346 347 345 343 340 336 332 330 330 329 328 328 329 331 334 337 338 339 339 340 340 341 342 341 341 341 340 340 340 340 339
288 289 289 289 289 288 288 290 293 297 300 303 305 306 306 308 309 312 314 315 317 319 321 323 324 325 326 325 325 326 328 330 331 331 332 334 335 335 335 335 335 336 338 341 342 342 341 340 338 334 330 329 328 327 327 329 331 333 335 336 337 338 339 339 340 340 341 341 341 341 340 340 340 340
295 294 293 293 292 291 288 289 292 296 300 302 302 303 303 305 305 306 306 308 311 314 316 318 320 321 323 323 323 323 324 325 328 329 329 330 331 331 331 331 331 331 332 333 335 337 337 337 337 335 332 328 327 326 328 329 330 331 333 335 336 337 339 339 338 339 340 341 342 341 340 340 341 341
313 310 306 303 299 295 290 288 289 293 298 301 302 302 302 302 303 303 302 304 306 307 310 312 314 316 319 319 319 320 321 322 324 326 326 326 327 328 328 328 328 328 328 329 331 333 334 334 335 334 332 329 325 325 327 328 328 329 331 333 335 337 338 338 337 338 340 341 342 341 341 341 342 343
336 333 328 321 312 303 297 293 292 292 296 299 302 303 302 302 303 303 303 303 303 303 305 306 308 311 313 314 314 315 317 319 320 321 322 322 323 324 325 325 326 326 327 328 329 330 331 333 334 334 332 329 324 322 323 324 325 326 329 333 335 336 337 337 336 338 339 341 342 342 340 341 343 345
355 353 349 343 333 321 311 304 300 298 298 300 303 304 305 307 307 306 305 304 303 303 303 303 304 307 309 310 310 311 313 315 316 317 319 319 320 321 323 323 324 324 326 327 327 328 328 328 330 331 331 329 325 320 318 320 322 324 328 332 334 335 336 336 335 337 339 341 342 342 341 341 344 346
2 360 356 352 347 340 330 320 314 310 307 306 305 305 306 307 307 306 305 305 304 303 303 302 302 304 306 306 305 307 309 310 312 314 315 316 318 319 321 322 322 323 324 326 326 325 326 328 330 330 328 326 325 319 314 314 316 321 327 330 331 332 333 334 334 336 339 341 342 342 342 342 344 347
354 352 350 347 344 341 335 328 325 321 318 315 311 309 308 308 307 306 305 303 303 303 303 302 301 303 303 301 302 304 306 306 308 311 312 313 315 317 319 319 319 320 322 324 324 323 327 332 335 333 328 324 323 320 314 309 309 316 324 327 327 329 331 331 333 335 338 341 343 343 342 342 344 348
341 338 335 332 330 328 325 323 321 320 319 318 316 313 311 310 309 308 306 305 305 305 304 303 303 302 300 299 301 302 303 305 308 309 310 310 312 315 316 316 316 317 320 322 322 323 328 334 337 336 333 328 325 321 314 307 305 309 318 322 323 327 329 330 332 335 338 341 343 343 342 342 344 348
330 327 324 321 320 318 316 316 316 315 315 314 313 311 310 310 309 307 306 307 307 307 306 306 307 305 302 301 302 303 304 307 309 309 309 310 311 313 314 314 314 316 319 321 321 323 328 333 334 335 334 331 328 325 316 306 301 304 312 319 321 324 327 328 331 334 338 341 342 343 343 342 344 348
318 316 314 312 312 310 309 309 308 307 307 306 305 305 306 306 305 304 304 306 305 304 304 304 305 304 302 302 303 304 306 307 308 309 308 309 310 311 311 312 313 315 316 318 321 323 327 331 332 332 333 332 331 328 319 308 301 303 310 317 319 322 325 327 330 334 337 340 342 344 344 343 343 348
305 304 303 303 302 302 303 303 300 299 298 297 297 298 299 299 300 300 302 303 302 302 302 302 302 300 300 301 301 302 304 306 306 307 308 309 310 309 309 311 313 313 314 316 320 321 324 328 331 333 334 333 331 328 321 312 305 303 308 314 316 320 323 326 330 334 337 339 341 343 344 343 344 347
301 299 298 298 297 299 300 299 297 296 295 294 295 295 294 294 293 295 298 300 300 300 300 299 299 299 299 300 301 301 302 304 305 306 308 311 311 309 310 311 312 312 312 316 319 319 320 324 328 331 332 331 330 328 324 317 308 302 305 312 314 318 322 326 330 333 335 338 340 342 343 343 344 347
298 296 296 295 296 298 298 298 298 297 297 296 296 294 293 293 293 296 297 296 296 296 296 297 297 298 298 298 299 300 300 302 304 306 308 311 310 309 310 310 310 311 312 316 318 318 318 320 325 329 329 327 329 329 325 318 309 299 303 309 312 316 321 325 329 331 334 337 339 341 342 342 344 347
292 292 292 292 294 296 296 296 297 298 298 298 298 297 295 294 297 301 299 294 293 293 295 296 296 297 298 297 296 298 299 301 303 304 308 310 308 308 309 309 311 311 311 313 316 318 318 320 324 327 325 323 326 327 323 317 307 297 301 307 310 315 320 324 327 331 333 334 337 339 340 340 343 347
288 289 289 289 291 291 291 291 292 295 297 298 299 299 297 297 302 302 296 293 295 294 294 297 297 297 297 297 296 297 298 299 300 302 306 308 307 306 306 307 311 312 311 311 314 316 318 319 323 325 322 322 326 326 322 316 303 292 298 304 307 313 318 322 326 329 331 332 335 337 338 339 343 348
283 286 288 288 287 286 286 287 289 292 294 296 297 297 297 300 301 297 292 293 296 295 294 296 297 296 297 298 298 298 297 297 298 300 301 303 304 303 302 304 308 310 309 309 311 313 315 316 320 322 321 322 325 324 321 314 299 289 295 300 304 312 316 320 324 328 330 331 333 335 335 337 342 347
281 283 284 284 283 282 284 286 289 290 291 293 295 297 299 299 296 293 291 292 292 291 292 294 296 296 297 298 298 297 296 295 296 296 297 298 298 296 297 300 304 306 306 307 308 310 310 313 317 319 320 322 324 322 319 311 295 286 292 297 302 310 314 318 322 326 328 329 331 332 333 336 341 345
280 279 277 276 277 279 281 284 287 288 289 291 295 298 299 297 292 289 288 288 289 291 293 295 296 297 298 297 297 296 294 292 292 292 293 293 293 292 294 298 301 302 303 304 304 305 306 309 313 316 317 321 323 320 315 308 294 283 288 294 300 308 312 315 320 325 327 327 328 330 331 333 338 343
281 279 277 277 278 279 280 281 283 285 287 290 293 297 298 295 290 288 289 292 294 295 294 293 295 297 297 295 294 292 291 290 288 288 288 289 289 291 292 294 297 298 299 300 301 301 303 306 311 313 313 317 321 318 312 305 293 281 285 292 298 306 310 313 319 324 326 326 327 328 329 331 336 341
287 286 284 283 283 284 283 282 282 283 286 288 291 295 297 294 290 291 295 298 297 295 293 293 294 294 293 292 291 289 287 286 284 283 284 285 286 289 290 291 293 294 295 297 297 298 300 304 308 310 310 312 316 315 308 300 290 280 283 290 296 304 308 311 317 322 324 324 325 325 326 329 334 340
289 287 286 286 287 287 287 286 285 285 286 288 291 296 299 297 295 297 300 300 298 297 298 297 296 294 293 292 289 286 283 282 281 282 282 283 283 285 286 287 289 291 292 294 294 294 297 300 304 305 305 308 313 312 304 295 284 277 281 288 294 301 306 308 314 320 322 323 324 323 323 326 333 337
287 287 287 289 290 291 291 290 290 289 288 290 293 297 301 301 300 301 301 299 298 299 300 299 298 296 293 289 285 283 282 281 281 280 279 279 280 280 282 284 286 288 289 291 291 291 292 296 299 300 299 303 310 309 301 291 279 275 280 287 292 298 303 306 312 317 320 322 322 321 321 324 330 335
287 288 289 291 293 294 293 293 293 292 292 293 296 299 301 300 300 301 300 298 297 298 299 300 298 295 291 289 288 288 287 284 281 278 275 275 275 276 277 279 281 284 286 287 289 291 291 293 294 294 294 300 307 306 298 287 275 274 280 285 290 297 302 305 311 315 318 320 320 319 319 322 327 332
288 289 290 292 293 294 295 295 296 296 296 298 299 300 301 300 299 299 299 298 298 299 299 298 296 293 291 292 294 294 291 288 286 283 278 275 273 272 273 273 276 281 283 284 287 290 290 289 289 290 292 297 302 302 294 280 270 273 279 283 288 295 301 305 310 314 316 318 318 316 315 318 324 330
288 289 291 292 292 293 295 297 297 297 299 300 301 302 301 300 299 298 297 298 298 299 299 297 293 291 292 294 297 297 296 294 293 289 286 281 276 274 273 272 273 278 281 282 285 285 284 284 285 288 292 295 298 297 288 273 267 273 278 282 286 292 298 304 308 312 315 316 315 313 312 315 322 328
289 290 291 291 292 294 296 297 297 298 300 301 301 301 300 298 298 297 297 298 299 299 298 295 293 292 294 296 298 298 298 297 294 291 291 288 283 279 276 273 273 274 276 279 280 277 278 281 283 286 291 292 292 290 280 266 265 271 275 281 285 289 295 302 306 310 314 314 312 310 309 313 320 327
288 289 290 290 292 294 296 297 298 299 301 301 300 300 298 297 297 297 298 299 298 298 297 295 295 296 298 298 298 297 296 294 292 290 290 289 286 284 280 277 275 272 271 273 273 273 277 280 281 284 287 285 285 283 271 261 264 269 273 278 284 287 294 300 304 309 312 311 309 308 307 311 318 324
287 289 290 291 292 294 296 297 299 300 300 300 299 299 298 297 298 299 299 299 298 298 298 297 296 297 298 299 298 297 295 293 291 289 287 287 287 285 280 277 276 273 269 266 266 270 274 276 278 282 282 280 281 279 263 255 261 267 271 277 281 286 292 297 301 306 308 308 308 306 306 309 315 322
289 291 291 292 293 296 297 299 300 300 300 300 300 299 299 300 301 301 301 301 301 302 301 299 297 297 298 297 296 295 294 293 290 287 286 286 285 282 277 274 275 273 267 262 263 269 271 270 275 281 279 276 278 275 259 251 255 262 269 275 278 283 290 294 298 303 305 306 306 305 305 309 314 320
290 291 291 293 295 297 299 300 300 300 300 300 300 300 301 302 302 302 303 303 304 304 302 299 298 298 297 296 295 295 294 292 288 285 284 283 281 278 274 272 273 271 263 259 261 266 267 266 271 276 274 271 273 269 258 250 253 260 267 272 274 279 285 289 294 300 303 304 304 303 304 309 314 319
289 290 291 294 296 298 299 300 299 298 299 300 300 301 301 301 302 302 304 305 305 303 301 299 298 298 297 297 297 296 294 293 290 283 278 278 277 271 265 265 269 266 257 255 259 264 265 264 265 269 270 269 268 263 257 254 256 262 267 270 271 276 281 286 292 298 300 300 300 301 304 309 313 318
289 290 292 294 296 298 299 298 297 297 298 299 300 301 301 301 302 304 306 307 306 303 301 300 300 300 301 302 300 296 295 297 294 283 274 274 274 269 264 263 262 258 254 255 259 262 262 261 261 265 269 269 264 257 254 253 258 264 267 269 271 276 281 286 291 294 296 297 298 299 302 307 311 317
290 291 293 295 297 298 297 296 295 296 297 299 300 300 300 302 303 305 307 308 305 302 301 300 301 302 305 306 301 295 295 299 295 279 269 271 271 269 268 264 257 253 251 251 251 252 253 255 258 263 266 262 253 246 245 250 257 262 265 268 271 275 280 284 288 291 293 294 294 296 300 305 310 315
290 291 293 294 295 295 294 293 293 295 297 298 300 300 301 303 305 306 307 306 304 302 302 302 302 305 309 312 307 300 298 301 297 277 263 266 265 257 252 252 256 256 250 244 242 243 244 249 256 259 257 249 241 237 240 248 256 261 262 265 267 271 275 280 283 286 288 290 292 295 298 303 308 313
290 291 292 294 293 292 291 291 293 295 297 300 301 302 303 304 305 306 306 306 305 306 305 305 306 307 309 313 315 306 294 292 295 283 263 256 250 243 234 235 245 248 244 239 238 241 245 252 255 251 245 238 233 233 241 249 256 260 262 264 266 268 271 275 278 282 285 288 291 294 299 303 307 310
290 291 292 292 290 289 289 291 294 296 298 300 302 302 304 305 306 307 309 309 310 311 310 309 309 309 309 311 314 311 296 284 283 277 259 246 236 230 227 228 232 236 238 239 245 251 254 255 251 241 234 230 227 232 242 249 254 259 262 264 266 268 270 274 278 282 285 287 291 295 299 302 305 308
289 290 290 289 287 288 289 291 293 295 297 299 300 302 304 306 307 308 310 312 312 312 310 308 306 307 310 312 315 318 307 283 263 256 254 245 233 226 225 226 229 235 243 248 252 253 251 247 240 234 232 228 227 232 241 247 252 257 260 263 266 269 272 276 280 282 285 287 291 295 297 300 304 307
Height
5951 5951 5950 5950 5951 5951 5950 5950 5950 5949 5949 5948 5948 5947 5947 5946 5946 5945 5944 5943 5943 5942 5941 5941 5940 5939 5938 5938 5936 5935 5934 5933 5932 5931 5930 5929 5928 5926 5925 5923 5922 5920 5918 5916 5914 5912 5910 5908 5906 5905 5903 5901 5899 5897 5895 5893 5891 5888 5885 5881 5879 5877 5874 5871 5867 5864 5861 5858 5856 5853 5851 5848 5845 5842
5950 5950 5950 5950 5950 5950 5950 5949 5949 5948 5948 5947 5947 5946 5946 5945 5945 5945 5944 5943 5942 5942 5941 5940 5939 5938 5938 5937 5936 5935 5933 5932 5931 5930 5929 5928 5927 5926 5924 5922 5920 5918 5916 5914 5912 5910 5908 5906 5904 5903 5901 5899 5896 5894 5892 5890 5888 5885 5882 5879 5877 5874 5871 5868 5865 5861 5859 5856 5853 5850 5848 5845 5842 5838
5949 5949 5949 5949 5948 5948 5948 5948 5948 5947 5947 5947 5946 5946 5945 5945 5944 5944 5943 5942 5941 5941 5940 5940 5939 5938 5937 5936 5935 5934 5932 5931 5930 5929 5928 5927 5926 5924 5922 5920 5919 5916 5914 5912 5910 5908 5906 5904 5902 5900 5898 5896 5894 5892 5890 5888 5885 5883 5880 5877 5875 5872 5869 5866 5862 5859 5856 5853 5850 5847 5844 5841 5838 5835
5948 5948 5948 5947 5947 5947 5947 5947 5946 5946 5946 5946 5945 5945 5944 5944 5943 5943 5942 5942 5941 5940 5939 5939 5938 5937 5936 5935 5933 5932 5931 5930 5929 5928 5927 5925 5924 5922 5921 5919 5917 5915 5913 5911 5909 5906 5904 5902 5900 5898 5896 5894 5891 5889 5887 5885 5883 5880 5878 5875 5872 5869 5866 5863 5860 5857 5853 5850 5847 5844 5841 5838 5834 5831
5947 5946 5946 5946 5945 5945 5945 5945 5945 5945 5945 5944 5944 5943 5943 5942 5942 5941 5941 5940 5940 5940 5939 5937 5936 5935 5934 5933 5932 5930 5930 5929 5928 5927 5926 5924 5923 5921 5919 5918 5916 5914 5912 5910 5907 5905 5903 5901 5899 5896 5894 5891 5889 5887 5885 5883 5880 5878 5876 5873 5870 5867 5864 5861 5858 5854 5851 5847 5844 5840 5837 5834 5831 5827
5945 5945 5944 5944 5944 5944 5944 5944 5944 5944 5943 5943 5942 5942 5941 5940 5940 5940 5939 5938 5938 5937 5937 5936 5935 5934 5933 5932 5931 5929 5928 5927 5927 5926 5924 5923 5921 5920 5918 5916 5915 5913 5911 5909 5906 5904 5901 5899 5897 5894 5892 5890 5887 5885 5883 5880 5878 5876 5873 5870 5867 5864 5861 5859 5855 5851 5848 5845 5841 5837 5834 5831 5827 5824
5945 5944 5943 5943 5943 5943 5943 5943 5943 5942 5942 5941 5941 5940 5940 5939 5938 5938 5938 5937 5936 5935 5935 5934 5934 5933 5932 5931 5930 5929 5928 5926 5925 5924 5923 5921 5920 5918 5916 5914 5912 5911 5910 5908 5905 5903 5900 5897 5895 5893 5890 5888 5885 5883 5880 5878 5876 5873 5870 5867 5865 5862 5859 5856 5853 5849 5846 5842 5838 5835 5831 5828 5824 5820
5943 5943 5943 5942 5942 5942 5942 5942 5942 5942 5941 5941 5940 5939 5938 5938 5937 5936 5936 5935 5935 5934 5933 5932 5932 5931 5930 5929 5928 5927 5926 5925 5923 5922 5920 5919 5918 5916 5914 5913 5910 5909 5907 5906 5903 5901 5898 5896 5893 5891 5888 5886 5883 5880 5878 5876 5873 5870 5867 5865 5862 5859 5856 5853 5850 5847 5844 5840 5836 5832 5828 5825 5821 5817
5942 5942 5941 5941 5941 5941 5941 5941 5940 5940 5940 5940 5939 5938 5937 5937 5936 5935 5934 5933 5932 5932 5931 5930 5929 5928 5928 5927 5926 5925 5924 5923 5922 5919 5917 5916 5915 5914 5913 5911 5909 5907 5905 5904 5902 5900 5897 5894 5891 5888 5886 5884 5881 5878 5876 5873 5870 5867 5865 5863 5860 5857 5854 5851 5848 5845 5842 5838 5834 5830 5826 5822 5818 5814
5940 5940 5940 5940 5939 5940 5940 5940 5939 5939 5938 5938 5938 5937 5936 5935 5935 5934 5933 5932 5931 5930 5929 5928 5927 5926 5925 5924 5923 5922 5921 5920 5919 5918 5916 5914 5913 5911 5910 5908 5907 5904 5902 5901 5900 5898 5895 5892 5890 5887 5884 5881 5879 5876 5873 5870 5868 5865 5863 5860 5858 5854 5851 5848 5846 5843 5839 5835 5831 5827 5823 5819 5816 5812
5939 5939 5939 5938 5938 5938 5938 5938 5938 5937 5936 5936 5936 5936 5935 5934 5933 5932 5931 5931 5930 5929 5927 5926 5925 5924 5923 5921 5920 5919 5918 5916 5916 5915 5914 5912 5910 5909 5907 5905 5904 5902 5899 5898 5896 5895 5893 5890 5888 5885 5882 5879 5876 5873 5871 5868 5866 5863 5861 5858 5855 5852 5849 5846 5843 5840 5837 5832 5828 5825 5821 5817 5813 5809
5937 5937 5937 5937 5937 5937 5936 5936 5936 5936 5935 5934 5934 5933 5933 5932 5931 5930 5929 5928 5928 5927 5926 5924 5923 5922 5921 5919 5917 5916 5915 5914 5912 5912 5911 5909 5908 5906 5904 5902 5900 5898 5896 5894 5892 5891 5890 5888 5885 5882 5879 5876 5873 5870 5868 5866 5864 5862 5858 5855 5852 5849 5847 5844 5841 5838 5834 5830 5826 5823 5819 5815 5811 5807
5936 5936 5936 5936 5936 5935 5935 5934 5934 5934 5933 5933 5932 5931 5931 5930 5930 5929 5927 5926 5925 5924 5924 5922 5920 5919 5918 5917 5915 5913 5912 5911 5909 5908 5907 5906 5904 5903 5901 5898 5896 5895 5893 5890 5887 5886 5885 5884 5882 5880 5877 5874 5871 5867 5865 5864 5862 5859 5856 5853 5850 5847 5844 5842 5839 5836 5832 5828 5824 5821 5817 5813 5809 5805
5936 5935 5935 5935 5934 5934 5934 5933 5932 5932 5932 5931 5930 5929 5928 5928 5927 5926 5925 5924 5923 5922 5921 5920 5918 5917 5916 5914 5912 5911 5909 5908 5906 5904 5903 5902 5900 5899 5897 5895 5892 5890 5889 5887 5884 5882 5881 5880 5878 5876 5874 5872 5868 5865 5862 5860 5858 5856 5853 5850 5847 5845 5842 5840 5837 5834 5830 5826 5822 5818 5815 5811 5807 5803
5934 5934 5934 5934 5933 5933 5933 5932 5931 5931 5930 5929 5928 5927 5926 5925 5924 5923 5921 5920 5920 5919 5918 5917 5916 5914 5913 5911 5908 5907 5906 5904 5903 5902 5899 5897 5896 5895 5894 5892 5889 5887 5886 5884 5880 5878 5878 5877 5874 5872 5870 5868 5864 5861 5858 5856 5854 5852 5850 5847 5845 5843 5840 5838 5835 5831 5828 5824 5820 5816 5813 5809 5806 5801
5932 5932 5932 5932 5932 5931 5931 5930 5930 5929 5928 5927 5926 5925 5924 5923 5921 5920 5918 5917 5917 5916 5915 5914 5913 5912 5910 5908 5906 5904 5902 5900 5899 5898 5896 5894 5892 5891 5890 5889 5886 5884 5882 5880 5877 5874 5873 5872 5870 5868 5866 5863 5860 5857 5853 5850 5849 5848 5846 5845 5843 5840 5838 5835 5832 5829 5825 5821 5817 5814 5811 5808 5804 5799
5931 5930 5930 5930 5930 5929 5929 5928 5927 5926 5925 5924 5923 5922 5921 5920 5919 5917 5915 5915 5914 5912 5911 5910 5910 5909 5907 5905 5903 5901 5898 5897 5896 5894 5893 5890 5889 5888 5886 5884 5882 5880 5878 5876 5873 5870 5869 5867 5866 5864 5862 5859 5857 5854 5850 5846 5844 5844 5843 5841 5839 5837 5835 5832 5829 5826 5822 5819 5815 5812 5809 5805 5802 5797
5929 5929 5928 5928 5927 5926 5926 5925 5924 5923 5922 5921 5920 5919 5918 5917 5915 5913 5912 5911 5910 5909 5908 5907 5906 5905 5903 5902 5900 5898 5895 5894 5892 5891 5889 5887 5885 5884 5882 5881 5879 5877 5875 5872 5870 5866 5864 5863 5862 5860 5858 5856 5853 5850 5847 5843 5841 5839 5839 5838 5836 5834 5832 5829 5826 5823 5819 5816 5813 5810 5807 5803 5800 5796
5927 5926 5925 5925 5925 5924 5923 5922 5921 5920 5919 5917 5916 5915 5914 5913 5911 5910 5909 5907 5906 5905 5904 5903 5902 5901 5899 5898 5897 5895 5892 5890 5889 5887 5886 5884 5882 5880 5878 5877 5875 5873 5870 5869 5867 5863 5860 5859 5858 5856 5854 5851 5849 5847 5843 5840 5837 5836 5835 5834 5833 5830 5828 5826 5823 5820 5817 5814 5810 5807 5805 5802 5798 5794
5924 5923 5922 5922 5921 5921 5920 5919 5917 5916 5914 5913 5912 5911 5910 5908 5907 5907 5906 5903 5901 5900 5899 5897 5897 5896 5895 5893 5892 5890 5888 5886 5884 5882 5882 5881 5878 5875 5873 5872 5871 5868 5866 5865 5863 5860 5857 5854 5853 5852 5849 5847 5844 5842 5839 5836 5834 5832 5832 5830 5829 5827 5825 5822 5819 5817 5814 5811 5808 5806 5803 5800 5797 5793
5920 5919 5919 5918 5917 5917 5916 5915 5913 5912 5910 5909 5908 5906 5905 5903 5903 5903 5902 5899 5897 5895 5894 5892 5891 5890 5889 5888 5887 5885 5883 5882 5880 5877 5877 5876 5873 5871 5869 5867 5865 5863 5862 5861 5858 5855 5853 5851 5849 5847 5845 5842 5840 5837 5835 5833 5830 5829 5828 5827 5825 5823 5821 5819 5816 5814 5811 5809 5806 5804 5802 5799 5795 5791
5916 5915 5915 5914 5913 5912 5911 5910 5909 5907 5905 5904 5903 5902 5900 5898 5899 5899 5897 5894 5892 5891 5889 5887 5886 5885 5884 5883 5882 5880 5879 5877 5875 5873 5872 5870 5868 5866 5864 5862 5860 5858 5857 5856 5853 5850 5848 5846 5844 5842 5840 5838 5836 5833 5831 5829 5827 5825 5825 5824 5822 5820 5817 5816 5813 5811 5808 5806 5804 5802 5800 5797 5793 5789
5912 5911 5911 5910 5909 5908 5907 5906 5904 5902 5900 5899 5898 5896 5894 5893 5894 5894 5890 5888 5887 5886 5884 5883 5881 5879 5878 5877 5876 5875 5874 5872 5871 5869 5867 5865 5862 5860 5859 5856 5854 5853 5853 5852 5849 5846 5844 5842 5840 5838 5835 5833 5831 5829 5827 5825 5823 5821 5821 5820 5818 5816 5814 5812 5810 5808 5805 5803 5801 5799 5797 5795 5791 5786
5909 5908 5907 5907 5905 5904 5902 5901 5899 5898 5897 5894 5892 5890 5888 5888 5888 5886 5883 5883 5883 5880 5879 5879 5875 5873 5872 5871 5870 5870 5869 5867 5865 5864 5863 5860 5857 5855 5852 5850 5849 5848 5848 5847 5844 5842 5840 5838 5836 5834 5831 5829 5827 5824 5822 5820 5818 5817 5817 5816 5815 5813 5811 5809 5807 5805 5803 5800 5798 5797 5795 5792 5788 5784
5906 5905 5904 5902 5901 5899 5897 5895 5894 5893 5892 5890 5887 5885 5883 5882 5881 5878 5876 5877 5877 5874 5874 5874 5871 5868 5867 5865 5864 5864 5863 5862 5860 5858 5856 5854 5851 5849 5847 5844 5843 5843 5843 5842 5839 5837 5835 5833 5832 5830 5828 5825 5823 5820 5818 5816 5814 5813 5813 5812 5811 5809 5807 5806 5804 5802 5799 5797 5796 5794 5792 5790 5786 5782
5901 5900 5899 5897 5896 5894 5893 5891 5889 5888 5887 5886 5883 5880 5878 5875 5872 5869 5868 5869 5870 5869 5869 5869 5866 5864 5862 5860 5858 5857 5856 5855 5854 5851 5849 5847 5845 5843 5842 5840 5838 5837 5836 5836 5834 5831 5829 5828 5827 5825 5823 5821 5819 5816 5813 5811 5810 5809 5809 5808 5807 5806 5804 5803 5801 5798 5796 5794 5793 5791 5789 5787 5783 5779
5895 5894 5892 5891 5890 5889 5888 5887 5885 5883 5882 5880 5878 5876 5873 5867 5862 5860 5861 5864 5865 5865 5863 5861 5859 5858 5856 5853 5851 5850 5849 5848 5846 5844 5842 5841 5838 5836 5836 5834 5832 5831 5830 5829 5828 5825 5822 5822 5822 5820 5818 5816 5814 5812 5809 5807 5805 5805 5805 5804 5804 5802 5801 5799 5797 5795 5793 5791 5790 5788 5786 5784 5780 5777
5890 5888 5886 5885 5885 5884 5883 5881 5880 5878 5877 5875 5872 5870 5866 5859 5854 5856 5858 5859 5858 5856 5854 5853 5852 5851 5849 5846 5844 5844 5842 5840 5837 5835 5834 5834 5832 5830 5829 5828 5826 5825 5824 5824 5822 5819 5816 5816 5816 5814 5813 5811 5809 5807 5804 5802 5801 5800 5800 5800 5799 5798 5797 5796 5794 5792 5790 5788 5787 5785 5783 5781 5777 5774
5884 5882 5880 5879 5879 5878 5877 5876 5874 5873 5872 5869 5867 5864 5861 5854 5849 5851 5852 5849 5847 5846 5845 5844 5842 5841 5840 5838 5836 5835 5833 5830 5829 5828 5826 5826 5825 5823 5822 5820 5819 5817 5817 5818 5816 5813 5811 5811 5811 5809 5807 5806 5804 5802 5800 5797 5796 5796 5796 5796 5795 5794 5793 5792 5790 5789 5787 5785 5784 5782 5780 5778 5775 5771
5877 5875 5874 5873 5873 5872 5871 5869 5867 5866 5865 5863 5861 5859 5856 5850 5845 5844 5843 5840 5837 5836 5835 5833 5831 5829 5828 5825 5823 5823 5822 5821 5819 5818 5817 5816 5816 5815 5814 5812 5811 5810 5810 5810 5809 5807 5804 5805 5805 5803 5801 5800 5799 5798 5796 5793 5792 5792 5792 5792 5791 5790 5790 5789 5787 5785 5783 5782 5781 5779 5777 5775 5772 5769
5871 5870 5868 5867 5866 5865 5864 5862 5860 5859 5858 5857 5855 5853 5851 5846 5841 5838 5835 5831 5828 5827 5825 5823 5820 5815 5811 5809 5810 5813 5814 5812 5810 5808 5806 5805 5804 5805 5804 5802 5801 5801 5801 5801 5800 5799 5797 5797 5798 5796 5794 5794 5795 5793 5791 5789 5788 5788 5788 5788 5788 5787 5786 5785 5783 5781 5780 5779 5777 5775 5774 5771 5768 5766
5864 5863 5862 5861 5859 5857 5856 5854 5853 5852 5851 5849 5848 5846 5844 5841 5836 5832 5828 5824 5822 5820 5818 5815 5809 5802 5797 5797 5799 5802 5804 5803 5802 5801 5799 5796 5795 5795 5794 5792 5792 5792 5792 5792 5792 5791 5790 5791 5791 5789 5788 5789 5790 5789 5786 5785 5784 5784 5785 5785 5784 5783 5782 5781 5780 5778 5776 5775 5774 5772 5770 5768 5765 5762
5858 5857 5856 5854 5852 5850 5849 5847 5846 5844 5843 5841 5840 5838 5836 5833 5830 5826 5821 5817 5814 5813 5811 5806 5798 5790 5789 5791 5791 5791 5792 5793 5793 5792 5790 5788 5786 5785 5783 5782 5782 5783 5784 5784 5784 5784 5784 5784 5783 5783 5782 5784 5785 5783 5781 5780 5781 5781 5781 5781 5780 5779 5778 5777 5776 5774 5772 5771 5770 5769 5767 5764 5761 5759
5852 5851 5849 5847 5845 5844 5842 5840 5838 5837 5835 5833 5831 5830 5828 5825 5822 5819 5815 5811 5807 5805 5803 5797 5787 5781 5783 5785 5784 5783 5784 5785 5784 5783 5780 5777 5776 5775 5774 5773 5773 5774 5775 5777 5777 5776 5776 5775 5775 5775 5776 5778 5779 5778 5776 5775 5776 5777 5777 5776 5776 5775 5774 5773 5772 5770 5769 5768 5767 5766 5763 5760 5758 5755
5846 5844 5843 5841 5839 5837 5835 5833 5831 5830 5828 5825 5823 5821 5819 5817 5815 5812 5808 5805 5801 5796 5793 5788 5780 5775 5777 5777 5775 5775 5775 5774 5774 5773 5770 5767 5767 5766 5765 5765 5765 5765 5767 5769 5769 5768 5768 5768 5768 5769 5771 5771 5773 5772 5771 5770 5771 5772 5772 5772 5772 5771 5771 5770 5768 5766 5765 5765 5764 5762 5760 5757 5754 5751
5839 5838 5836 5834 5832 5831 5829 5826 5824 5822 5820 5817 5815 5812 5810 5808 5807 5804 5801 5797 5793 5789 5785 5780 5774 5770 5768 5766 5764 5763 5762 5762 5762 5761 5758 5757 5757 5757 5757 5756 5756 5757 5759 5761 5760 5760 5762 5762 5762 5763 5765 5766 5766 5766 5765 5765 5767 5768 5768 5768 5768 5767 5767 5765 5764 5763 5762 5761 5760 5759 5756 5754 5750 5748
5831 5829 5827 5826 5825 5823 5821 5819 5817 5814 5812 5809 5806 5804 5801 5799 5798 5796 5792 5787 5783 5780 5776 5772 5767 5764 5761 5758 5755 5752 5750 5749 5748 5747 5746 5747 5747 5747 5747 5747 5748 5749 5751 5752 5752 5754 5756 5755 5755 5757 5759 5759 5760 5760 5760 5761 5763 5763 5763 5764 5764 5763 5762 5761 5760 5759 5758 5757 5756 5755 5753 5750 5747 5744
5822 5820 5818 5817 5816 5815 5813 5811 5808 5806 5803 5801 5798 5796 5794 5791 5789 5786 5783 5779 5775 5771 5767 5763 5760 5757 5753 5749 5746 5743 5741 5738 5735 5734 5735 5737 5737 5737 5738 5738 5740 5742 5743 5742 5744 5746 5747 5746 5748 5752 5753 5753 5754 5754 5754 5756 5758 5758 5759 5760 5759 5759 5758 5757 5756 5755 5754 5753 5752 5751 5749 5746 5743 5741
5814 5812 5811 5810 5809 5807 5806 5804 5801 5798 5796 5794 5791 5788 5786 5784 5781 5778 5774 5771 5767 5763 5759 5755 5752 5749 5746 5742 5737 5733 5730 5728 5724 5722 5723 5724 5725 5725 5727 5729 5732 5734 5733 5734 5737 5738 5738 5740 5744 5747 5746 5747 5748 5748 5749 5751 5753 5753 5755 5755 5755 5755 5754 5753 5752 5751 5749 5749 5748 5747 5745 5742 5739 5737
5807 5805 5804 5803 5801 5800 5798 5796 5794 5791 5789 5787 5785 5782 5779 5776 5774 5770 5767 5763 5760 5756 5751 5747 5744 5740 5737 5732 5727 5722 5720 5718 5714 5710 5711 5712 5713 5714 5716 5721 5724 5724 5725 5729 5731 5730 5730 5735 5739 5740 5740 5741 5742 5743 5744 5746 5747 5748 5750 5751 5750 5750 5749 5748 5747 5746 5745 5745 5744 5742 5740 5738 5735 5733
5799 5798 5796 5795 5793 5792 5790 5788 5786 5784 5782 5780 5778 5776 5772 5769 5766 5763 5759 5756 5752 5748 5744 5741 5737 5734 5730 5724 5715 5710 5708 5706 5704 5702 5702 5703 5705 5706 5710 5714 5716 5716 5719 5721 5720 5719 5724 5730 5734 5734 5734 5736 5737 5738 5739 5741 5742 5744 5745 5746 5746 5746 5745 5744 5743 5742 5741 5741 5740 5738 5736 5734 5731 5728
5792 5791 5789 5788 5786 5784 5782 5780 5779 5777 5775 5773 5771 5768 5765 5762 5759 5756 5753 5749 5746 5741 5737 5734 5730 5727 5725 5720 5712 5704 5698 5695 5694 5694 5693 5694 5699 5702 5705 5708 5709 5709 5710 5710 5710 5714 5723 5728 5728 5728 5729 5730 5731 5733 5734 5736 5738 5740 5741 5742 5742 5741 5741 5740 5739 5738 5737 5736 5735 5734 5732 5729 5727 5724
5785 5784 5782 5780 5779 5777 5775 5773 5771 5769 5767 5765 5762 5760 5757 5755 5752 5750 5747 5743 5739 5735 5731 5727 5722 5718 5716 5714 5711 5706 5699 5693 5690 5689 5686 5688 5694 5696 5696 5699 5702 5702 5703 5706 5711 5717 5721 5722 5721 5722 5724 5725 5726 5728 5730 5732 5734 5735 5736 5737 5737 5737 5736 5735 5735 5734 5733 5732 5730 5729 5727 5724 5722 5720
5778 5776 5775 5773 5771 5770 5768 5767 5764 5762 5759 5757 5755 5752 5749 5746 5744 5741 5739 5736 5732 5727 5723 5718 5715 5711 5707 5704 5702 5700 5695 5690 5688 5686 5683 5685 5689 5689 5687 5690 5695 5698 5702 5708 5712 5714 5714 5715 5716 5717 5718 5720 5722 5724 5726 5728 5730 5731 5732 5732 5732 5732 5732 5731 5730 5729 5728 5727 5726 5724 5722 5720 5718 5716
5770 5769 5767 5766 5764 5763 5762 5760 5758 5755 5753 5751 5749 5746 5743 5740 5737 5734 5731 5728 5725 5721 5716 5713 5709 5706 5702 5697 5692 5689 5685 5680 5679 5680 5682 5684 5688 5689 5689 5692 5696 5699 5703 5706 5706 5707 5708 5710 5711 5712 5713 5715 5718 5720 5722 5724 5725 5726 5727 5727 5727 5727 5727 5726 5725 5724 5723 5722 5721 5719 5717 5716 5714 5712